DW5542 Weather Reports


Display with metric or nautical units.
time (UTC)temp
F
wind
direction
speed
MPH
gust
MPH
rain 1hr
in
rain 24hr
in
rain mn
in
humidity
%
barometer
mb
20260905123021 89 165 0.0 2.0 0.00 0.00 0.00 65 1019.0
20260905121525 88 211 0.0 1.0 0.00 0.00 0.00 65 1019.0
20260905120018 88 149 0.0 4.0 0.00 0.00 0.00 66 1019.0
20260905114517 89 180 0.0 2.0 0.00 0.00 0.00 65 1019.0
20260905113016 90 148 0.0 9.0 0.00 0.00 0.00 63 1018.8
20260905111514 90 150 0.0 1.0 0.00 0.00 0.00 61 1018.7
20260905110013 91 143 0.0 6.0 0.00 0.00 0.00 60 1018.7
20260905104512 91 249 0.0 1.0 0.00 0.00 0.00 59 1018.7
20260905103011 91 159 0.0 3.0 0.00 0.00 0.00 58 1018.8
20260905101508 92 158 0.0 0.0 0.00 0.00 0.00 47 1018.7
20260905100004 91 285 0.0 1.0 0.00 0.00 0.00 48 1018.6
20260905094601 90 249 0.0 0.0 0.00 0.00 0.00 49 1018.5
20260905093055 88 328 0.0 4.0 0.00 0.00 0.00 50 1018.5
20260905091607 87 245 0.0 2.0 0.00 0.00 0.00 53 1018.4
20260905090045 85 312 0.0 5.0 0.00 0.00 0.00 60 1018.3
20260905084604 84 310 1.0 8.0 0.00 0.00 0.00 63 1018.2
20260905083038 82 314 2.0 9.0 0.00 0.00 0.00 66 1018.1
20260905081534 81 343 0.0 9.0 0.00 0.00 0.00 71 1018.1
20260905080038 80 316 0.0 10.0 0.00 0.00 0.00 72 1018.1
20260905074530 79 293 4.0 9.0 0.00 0.00 0.00 73 1018.1
20260905073028 77 326 0.0 4.0 0.00 0.00 0.00 78 1018.1
20260905071522 76 291 0.0 0.0 0.00 0.00 0.00 80 1018.0
20260905070038 76 18 0.0 0.0 0.00 0.00 0.00 84 1017.9
20260905064521 74 18 0.0 0.0 0.00 0.00 0.00 87 1017.9
20260905063020 73 18 0.0 0.0 0.00 0.00 0.00 87 1017.9
20260905061519 72 18 0.0 0.0 0.00 0.00 0.00 88 1018.0
20260905060019 72 18 0.0 0.0 0.00 0.00 0.00 88 1018.0
20260905054533 0 0.0 0.0 0.00 0.00 0.00 1017.9
20260905053011 0 0.0 0.0 0.00 0.00 0.00 1017.8
20260905051507 0 0.0 0.0 0.00 0.00 0.00 1017.8
20260905050004 0 0.0 0.0 0.00 0.00 0.00 1017.8
20260905044559 0 0.0 0.0 0.00 0.00 0.00 1017.6
20260905043054 0 0.0 0.0 0.00 0.00 0.00 1017.5
20260905041555 0 0.0 0.0 0.00 0.00 0.00 1017.5
20260905040052 0 0.0 0.0 0.00 0.00 0.00 1017.5
20260905034544 0 0.0 0.0 0.00 0.00 0.00 1017.5
20260905033049 0 0.0 0.0 0.00 0.00 0.00 1017.3
20260905031545 74 18 0.0 0.0 0.00 0.00 0.00 82 1017.3
20260905030045 74 18 0.0 0.0 0.00 0.00 0.00 80 1017.3
20260905024536 74 18 0.0 0.0 0.00 0.00 0.00 79 1017.2
20260905023037 74 18 0.0 0.0 0.00 0.00 0.00 80 1017.2
20260905021533 74 3 0.0 0.0 0.00 0.00 0.00 82 1017.2
20260905020030 75 3 0.0 0.0 0.00 0.00 0.00 82 1017.1
20260905014527 76 3 0.0 0.0 0.00 0.00 0.00 81 1017.1
20260905013028 76 331 0.0 0.0 0.00 0.00 0.00 82 1017.2
20260905011525 76 333 0.0 0.0 0.00 0.00 0.00 82 1017.3
20260905010026 76 334 0.0 0.0 0.00 0.00 0.00 80 1017.3
20260905004527 77 334 0.0 0.0 0.00 0.00 0.00 81 1017.2
20260905003024 77 334 0.0 0.0 0.00 0.00 0.00 82 1017.2
20260905001523 76 334 0.0 0.0 0.00 0.00 0.00 82 1017.3
20260905000021 76 335 0.0 0.0 0.00 0.00 0.00 82 1017.4
20260904234533 76 335 0.0 0.0 0.00 0.00 0.00 83 1017.3
20260904233016 77 335 0.0 0.0 0.00 0.00 0.00 84 1017.4
20260904231514 77 335 0.0 0.0 0.00 0.00 0.00 84 1017.4
20260904230015 77 335 0.0 0.0 0.00 0.00 0.00 84 1017.4
20260904224512 77 333 0.0 0.0 0.00 0.00 0.00 83 1017.3
20260904223011 77 332 0.0 0.0 0.00 0.00 0.00 83 1017.2
20260904221509 77 332 0.0 0.0 0.00 0.00 0.00 83 1017.0
20260904220005 78 108 0.0 0.0 0.00 0.00 0.00 84 1017.1
20260904214507 79 109 0.0 0.0 0.00 0.00 0.00 85 1017.1
20260904213004 79 110 0.0 0.0 0.00 0.00 0.00 84 1017.2
20260904211503 79 117 0.0 0.0 0.00 0.00 0.00 83 1017.2
20260904210004 79 115 0.0 0.0 0.00 0.00 0.00 83 1017.3
20260904204503 79 115 0.0 0.0 0.00 0.00 0.00 82 1017.3
20260904203006 79 122 0.0 0.0 0.00 0.00 0.00 81 1017.1
20260904201502 80 131 0.0 0.0 0.00 0.00 0.00 82 1017.1
20260904200002 80 98 0.0 0.0 0.00 0.00 0.00 82 1017.0
20260904194601 80 100 0.0 0.0 0.00 0.00 0.00 81 1016.8
20260904193105 80 123 0.0 0.0 0.00 0.00 0.00 81 1016.7
20260904191612 81 152 0.0 0.0 0.00 0.00 0.00 80 1016.6
20260904190159 81 142 0.0 0.0 0.00 0.00 0.00 80 1016.4
20260904184605 81 152 0.0 0.0 0.00 0.00 0.00 79 1016.2
20260904183057 81 106 0.0 0.0 0.00 0.00 0.00 78 1016.1
20260904181556 82 148 0.0 0.0 0.00 0.00 0.00 77 1016.1
20260904180056 82 148 0.0 0.0 0.00 0.00 0.00 75 1016.1
20260904174555 83 105 0.0 0.0 0.00 0.00 0.00 75 1016.0
20260904173056 83 101 0.0 0.0 0.00 0.00 0.00 73 1016.1
20260904171600 84 105 0.0 0.0 0.00 0.00 0.00 73 1016.0
20260904170055 85 124 0.0 0.0 0.00 0.00 0.00 72 1016.2
20260904164557 85 114 0.0 2.0 0.00 0.00 0.00 72 1016.0
20260904163051 85 107 0.0 0.0 0.00 0.00 0.00 72 1016.1
20260904161551 85 94 0.0 1.0 0.00 0.00 0.00 72 1016.2
20260904160054 85 139 0.0 3.0 0.00 0.00 0.00 72 1016.3
20260904154552 86 147 0.0 1.0 0.00 0.00 0.00 72 1016.3
20260904153049 86 139 1.0 6.0 0.00 0.00 0.00 72 1016.1
20260904151550 86 145 0.0 8.0 0.00 0.00 0.00 71 1016.1
20260904150048 85 170 0.0 5.0 0.00 0.00 0.00 72 1016.1
20260904144547 86 156 0.0 9.0 0.00 0.00 0.00 73 1016.1
20260904143045 86 169 1.0 10.0 0.00 0.00 0.00 73 1016.3
20260904141544 85 149 1.0 11.0 0.00 0.00 0.00 74 1016.3
20260904140059 85 129 0.0 9.0 0.00 0.00 0.00 75 1016.5
20260904134544 86 143 0.0 9.0 0.00 0.00 0.00 73 1016.5
20260904133044 86 134 1.0 10.0 0.00 0.00 0.00 71 1016.6
20260904131545 86 143 0.0 9.0 0.00 0.00 0.00 72 1016.9
20260904130048 86 164 0.0 2.0 0.00 0.00 0.00 70 1017.0
20260904124538 85 173 2.0 8.0 0.00 0.00 0.00 72 1017.0